Temp
1 2 2 2 2 3 4 4 2 4 5 5 3 -0 7 9 9 10 9 10 9 9 8 8 8 9 9 10 10 9 10 9 8 11 12 13 12 12 11 10 10 10 9 11
1 1 1 1 2 2 3 3 3 4 5 1 1 4 6 7 8 8 9 9 9 9 8 7 8 9 10 9 9 9 9 7 7 10 10 10 10 11 11 11 11 9 10 11
0 1 1 1 2 2 2 2 -2 3 4 3 2 3 4 5 6 7 7 7 8 7 7 7 6 8 9 8 8 9 9 7 7 8 9 9 9 10 9 10 9 9 8 10
0 0 0 1 1 1 1 2 1 2 1 1 3 4 4 4 4 7 7 6 6 6 5 5 6 7 7 7 8 7 6 5 7 7 8 9 8 8 8 8 10 9 10 10
0 0 -0 0 0 1 1 1 1 1 1 2 3 3 3 4 5 5 5 5 5 5 4 5 4 5 5 6 7 6 5 4 5 5 7 8 7 7 7 8 9 9 10 10
-0 -0 -0 -0 0 0 0 0 0 0 -0 -0 -0 1 3 3 3 4 4 4 3 4 5 5 5 5 5 5 5 5 4 3 2 5 6 5 5 7 8 9 9 9 8 10
-0 -0 -0 -0 -1 -0 -1 -0 -0 -0 -4 -1 -0 2 2 2 2 2 3 3 3 4 5 5 5 5 4 4 5 6 4 4 2 3 4 2 7 8 9 8 8 9 9 10
-1 -1 -1 -1 -1 -1 -1 -1 -1 -1 -1 0 -0 0 1 2 2 1 2 2 3 3 3 2 1 2 3 5 5 4 5 4 -0 2 3 5 6 8 8 7 7 8 8 8
-1 -1 -1 -1 -1 -1 -1 -1 -1 -2 -2 -1 0 -0 0 -1 -1 0 1 3 3 3 2 -1 -2 1 2 3 5 6 5 4 3 -4 -1 -0 7 8 8 7 5 8 6 6
-1 -1 -1 -1 -1 -1 -1 -1 -1 -3 -2 -1 -1 -1 -1 0 0 -1 1 2 2 2 -2 -1 0 1 3 2 3 4 4 3 3 3 2 3 7 8 8 4 5 7 7 7
-1 -1 -1 -1 -1 -2 -2 -1 -2 -2 -3 -2 -1 -1 -1 -1 -0 -1 0 -0 -0 -1 -2 -2 -2 0 2 2 3 3 3 3 3 4 3 2 8 7 5 6 8 7 7 7
-1 -1 -1 -1 -1 -1 -2 -2 -1 -2 -3 -2 -1 0 -0 -1 -0 -0 -0 0 1 1 -3 -2 -0 -0 -0 1 0 4 2 3 3 3 3 6 6 6 7 7 7 6 6 7
-1 -1 -1 -1 -1 -1 -1 -1 -1 -1 -1 -2 -1 -1 0 -0 0 0 -2 -1 -1 -0 1 -1 -0 -1 -2 -2 -0 2 2 4 3 3 4 5 5 6 6 7 7 6 6 6
-1 -1 -1 -1 -1 -1 -1 -1 -1 -2 -1 -2 -0 0 1 3 2 1 -0 -0 -1 -1 -1 -1 -1 -1 0 -2 0 1 2 2 2 2 4 4 5 5 5 6 7 6 6 6
-1 -1 -0 -1 -1 -1 -1 -1 -1 -1 -2 -1 -1 -1 1 2 2 2 1 -0 -1 -1 -1 -1 -1 -0 -1 -1 -0 -0 2 1 1 2 4 4 4 5 5 5 6 5 5 5
-1 -1 -1 -1 -1 -1 -1 -1 1 -0 -0 -1 -1 0 1 2 2 1 1 1 -1 -1 -1 -1 -1 0 0 -1 0 3 3 3 3 2 3 3 3 4 4 4 4 4 5 5
-2 -1 -1 -1 -1 -1 -1 -1 -1 -1 -1 -1 -1 -2 2 3 3 1 1 -0 -1 -1 -1 -1 -0 0 0 -0 0 3 3 4 4 3 3 3 3 3 4 4 4 5 5 5
-1 -1 -1 -1 -1 -1 -1 -1 -1 -1 -1 -1 -1 -2 0 3 2 1 1 0 -0 -0 -0 -0 -0 1 -0 0 2 3 3 2 2 3 3 3 3 3 3 4 4 4 4 3
-1 -1 -1 -1 -2 -1 -1 -1 -1 -1 -1 -2 -2 -3 -3 3 3 2 1 1 1 0 -0 1 1 1 1 3 4 1 1 0 0 -0 1 3 3 3 3 3 4 3 2 1
-1 -1 -1 -1 -1 -1 -1 -1 -1 -1 -1 -1 -1 0 -3 2 3 1 0 -0 1 1 1 1 0 1 3 0 -0 -0 -1 -2 -2 -2 -0 -0 2 3 3 3 3 3 2 -0
-1 -1 -1 -1 -1 -1 -1 -2 -2 -1 -1 -2 -2 -1 -2 2 -2 -1 0 -1 -0 1 1 1 1 2 -0 -1 -2 -3 -3 -3 -2 -1 -1 -0 -0 1 2 2 2 1 -0 -3
-1 -1 -1 -1 -1 -1 -1 -1 -2 -1 -0 -0 -1 -0 -0 1 0 0 -0 0 -1 0 1 1 2 -0 -2 -3 -4 -4 -4 -4 -4 -4 -4 -2 -1 -1 -0 -0 -0 -2 -4 -5
-1 -1 -1 -1 -1 -0 -0 -0 1 -2 1 1 1 -1 -0 -0 -0 -1 -0 1 -1 1 2 2 -0 -2 -3 -4 -5 -5 -5 -5 -5 -5 -5 -5 -5 -5 -5 -6 -6 -6 -4 -4
-1 -1 -1 -1 -1 -0 -1 -1 1 2 1 1 0 -0 -1 -1 -1 -1 0 -1 1 -0 1 0 -1 -3 -4 -4 -5 -5 -5 -6 -6 -6 -5 -5 -5 -6 -5 -5 -4 -4 -5 -6
-1 -1 -0 -1 1 2 2 3 2 2 2 1 0 -0 -0 -0 -1 -0 -0 -0 1 2 0 -1 -2 -3 -4 -4 -5 -5 -5 -5 -5 -5 -5 -5 -4 -4 -5 -5 -4 -4 -6 -6
-0 0 -0 1 -1 -1 1 1 2 2 1 0 1 0 0 0 0 1 0 2 2 0 -1 -2 -3 -4 -4 -4 -5 -4 -4 -4 -4 -4 -4 -4 -4 -4 -5 -6 -6 -6 -5 -6
1 1 3 3 3 3 3 2 2 2 1 1 0 1 2 -0 1 2 1 -0 -2 -1 -2 -3 -3 -4 -4 -4 -4 -4 -4 -4 -4 -4 -4 -4 -5 -5 -5 -5 -6 -6 -7 -7
Height
1524 1524 1525 1527 1526 1527 1529 1528 1532 1533 1532 1535 1538 1544 1537 1538 1534 1534 1534 1534 1535 1537 1539 1538 1535 1531 1529 1526 1527 1528 1521 1519 1512 1495 1490 1488 1494 1497 1497 1502 1501 1496 1499 1481
1523 1524 1527 1528 1527 1527 1529 1531 1532 1532 1532 1541 1542 1540 1540 1539 1538 1537 1535 1535 1535 1535 1539 1541 1531 1528 1527 1527 1527 1526 1522 1523 1519 1487 1489 1493 1498 1498 1501 1501 1499 1496 1493 1465
1524 1524 1527 1528 1528 1528 1532 1534 1538 1536 1536 1538 1541 1542 1541 1540 1539 1538 1539 1538 1537 1539 1538 1534 1531 1528 1525 1523 1524 1523 1519 1518 1518 1512 1504 1506 1502 1498 1504 1505 1505 1497 1497 1472
1522 1526 1530 1528 1529 1530 1534 1536 1538 1537 1538 1540 1540 1542 1542 1542 1544 1539 1539 1539 1540 1542 1541 1537 1532 1529 1526 1524 1522 1522 1523 1522 1515 1509 1505 1502 1501 1499 1500 1502 1498 1495 1486 1473
1523 1527 1529 1530 1530 1533 1534 1537 1537 1538 1539 1541 1542 1542 1542 1541 1542 1542 1541 1541 1540 1539 1540 1537 1534 1531 1529 1525 1521 1522 1521 1521 1515 1508 1503 1500 1497 1495 1497 1494 1489 1484 1478 1468
1524 1527 1527 1530 1531 1534 1535 1537 1538 1540 1542 1543 1545 1543 1542 1542 1543 1540 1540 1542 1540 1538 1535 1532 1528 1526 1526 1524 1522 1522 1523 1522 1523 1504 1505 1505 1497 1481 1482 1479 1481 1481 1480 1472
1522 1524 1528 1530 1531 1534 1536 1537 1539 1542 1546 1543 1543 1541 1542 1541 1540 1542 1539 1539 1538 1536 1532 1527 1522 1520 1517 1515 1512 1514 1516 1518 1523 1517 1512 1524 1474 1472 1473 1477 1477 1475 1468 1466
1520 1523 1526 1528 1530 1533 1535 1536 1539 1541 1541 1540 1539 1541 1541 1539 1536 1537 1537 1535 1533 1532 1530 1527 1523 1519 1512 1502 1499 1501 1502 1508 1523 1516 1507 1488 1468 1459 1472 1477 1470 1470 1465 1465
1518 1521 1523 1526 1528 1530 1531 1533 1536 1539 1541 1536 1536 1538 1537 1534 1534 1534 1531 1530 1529 1529 1526 1530 1533 1520 1512 1504 1493 1489 1496 1498 1505 1529 1523 1513 1434 1462 1468 1470 1473 1462 1463 1461
1515 1517 1519 1522 1523 1526 1527 1528 1532 1536 1536 1532 1534 1533 1532 1531 1531 1531 1528 1526 1524 1524 1525 1526 1522 1513 1508 1502 1494 1494 1493 1495 1496 1495 1495 1477 1452 1458 1462 1475 1468 1457 1459 1457
1511 1513 1515 1517 1520 1523 1524 1524 1528 1530 1530 1524 1526 1526 1526 1526 1527 1529 1526 1528 1522 1520 1523 1521 1516 1506 1500 1494 1488 1489 1490 1490 1485 1481 1480 1474 1451 1455 1462 1458 1451 1452 1453 1452
1507 1509 1510 1512 1515 1518 1520 1520 1523 1525 1525 1519 1516 1515 1515 1517 1519 1523 1523 1520 1518 1515 1517 1514 1510 1505 1500 1497 1493 1484 1485 1481 1479 1476 1465 1450 1450 1453 1452 1451 1444 1444 1447 1446
1503 1504 1506 1508 1510 1512 1514 1515 1518 1519 1517 1511 1507 1503 1505 1506 1506 1512 1514 1505 1510 1508 1509 1508 1503 1499 1496 1495 1487 1479 1471 1467 1463 1464 1449 1444 1442 1446 1445 1443 1438 1439 1441 1439
1499 1500 1501 1502 1504 1506 1509 1510 1512 1515 1514 1506 1498 1498 1496 1494 1494 1495 1496 1490 1501 1501 1501 1498 1493 1491 1487 1481 1476 1472 1461 1460 1451 1448 1442 1437 1437 1434 1433 1432 1431 1431 1432 1433
1495 1496 1498 1499 1501 1503 1505 1505 1506 1508 1512 1500 1493 1491 1488 1485 1487 1485 1485 1486 1489 1492 1492 1488 1483 1480 1484 1475 1474 1457 1438 1437 1449 1434 1425 1429 1424 1421 1424 1425 1421 1423 1425 1424
1492 1493 1495 1497 1499 1500 1501 1500 1498 1499 1501 1498 1490 1481 1476 1475 1477 1475 1476 1478 1482 1485 1483 1478 1473 1472 1474 1464 1448 1416 1418 1424 1424 1419 1416 1415 1415 1412 1411 1413 1413 1416 1417 1417
1488 1490 1492 1493 1495 1496 1498 1499 1496 1494 1498 1497 1489 1479 1470 1468 1467 1467 1469 1472 1473 1475 1473 1466 1463 1459 1464 1447 1430 1395 1408 1413 1410 1407 1405 1401 1401 1400 1398 1403 1405 1408 1409 1409
1485 1487 1488 1490 1491 1492 1491 1491 1493 1495 1496 1496 1490 1479 1471 1465 1464 1465 1464 1465 1466 1463 1459 1455 1451 1449 1447 1431 1404 1402 1399 1397 1394 1389 1387 1385 1385 1389 1390 1395 1397 1399 1401 1401
1482 1483 1484 1485 1485 1486 1485 1486 1488 1490 1495 1490 1484 1482 1477 1464 1462 1462 1462 1460 1456 1452 1447 1443 1444 1433 1425 1405 1403 1400 1392 1385 1374 1368 1368 1369 1371 1372 1378 1383 1386 1392 1393 1395
1478 1480 1480 1479 1479 1481 1482 1484 1485 1486 1484 1483 1476 1473 1471 1466 1462 1461 1461 1455 1451 1445 1438 1435 1430 1417 1415 1413 1404 1393 1383 1372 1358 1348 1343 1346 1353 1359 1363 1368 1378 1384 1388 1392
1474 1475 1475 1475 1477 1479 1480 1481 1483 1482 1480 1474 1467 1466 1464 1463 1463 1460 1459 1455 1449 1442 1432 1432 1422 1414 1415 1407 1398 1389 1376 1364 1350 1336 1328 1329 1335 1345 1354 1363 1372 1380 1384 1390
1469 1470 1471 1474 1476 1477 1478 1476 1476 1474 1467 1461 1460 1459 1460 1459 1458 1456 1455 1453 1449 1439 1433 1427 1416 1418 1413 1405 1397 1387 1376 1366 1354 1344 1334 1322 1324 1339 1346 1355 1364 1373 1380 1388
1466 1467 1468 1469 1471 1471 1469 1467 1462 1464 1455 1455 1456 1457 1457 1456 1457 1455 1454 1448 1445 1434 1429 1423 1426 1423 1416 1407 1400 1393 1384 1375 1367 1360 1352 1345 1345 1348 1353 1362 1370 1377 1386 1398
1460 1460 1462 1461 1461 1458 1453 1452 1449 1450 1451 1452 1453 1455 1456 1455 1456 1454 1451 1445 1439 1437 1431 1431 1431 1426 1419 1412 1407 1401 1394 1388 1382 1377 1372 1368 1366 1369 1372 1378 1385 1391 1399 1406
1457 1454 1451 1450 1445 1444 1444 1446 1446 1446 1447 1450 1452 1453 1454 1453 1454 1451 1449 1446 1437 1431 1433 1435 1433 1429 1424 1419 1414 1410 1404 1399 1395 1392 1389 1387 1387 1388 1391 1397 1402 1406 1411 1417
1451 1447 1442 1440 1442 1442 1443 1442 1442 1444 1446 1449 1450 1449 1449 1449 1448 1446 1444 1437 1432 1435 1437 1435 1433 1431 1428 1424 1420 1417 1413 1410 1407 1405 1403 1403 1404 1405 1407 1412 1416 1420 1424 1429
1440 1435 1433 1434 1434 1436 1437 1437 1438 1441 1444 1444 1445 1443 1441 1439 1442 1437 1436 1437 1438 1436 1435 1436 1435 1433 1431 1429 1427 1424 1422 1419 1417 1415 1415 1415 1416 1417 1419 1420 1428 1431 1435 1438
Wind_Speed
2 1 2 2 1 2 4 3 3 7 3 4 3 3 3 4 6 14 4 2 3 2 5 3 3 3 2 20 12 7 3 4 8 14 13 17 7 8 5 1 1 5 4 10
2 1 0 1 1 3 6 3 3 6 4 3 2 5 3 3 6 6 4 4 2 1 2 4 4 3 8 12 5 4 4 3 6 17 5 6 5 4 9 8 4 7 4 10
3 2 1 1 2 5 5 2 2 3 3 4 4 2 2 3 11 5 9 4 6 6 4 5 6 6 4 11 10 12 11 6 9 11 9 8 14 10 3 7 6 10 12 23
4 3 1 2 2 5 6 2 2 4 1 4 1 2 2 3 4 3 11 4 4 3 4 7 5 6 5 7 6 7 3 4 6 11 12 5 7 11 10 9 9 10 14 25
5 4 2 1 2 2 5 2 3 5 3 4 2 2 2 3 5 3 5 6 8 5 3 7 10 6 3 4 2 4 2 5 3 13 9 10 14 10 5 10 16 16 16 21
8 7 4 4 3 2 2 3 1 3 3 3 3 2 1 3 7 9 7 12 8 8 12 20 21 13 13 14 6 5 3 3 1 15 5 13 16 13 8 5 2 6 10 18
10 9 8 7 7 7 6 5 3 2 3 3 3 4 11 11 14 8 17 14 6 10 24 29 24 20 20 21 20 18 8 5 1 7 4 9 13 10 13 9 10 11 21 17
10 11 10 9 9 10 11 12 10 2 2 6 10 11 10 15 17 14 11 19 16 26 17 5 7 7 10 11 14 15 19 10 4 8 11 16 25 18 12 10 19 10 17 9
12 12 12 13 14 14 17 18 16 9 4 7 20 14 15 9 6 8 17 21 18 23 6 0 4 7 6 6 5 5 9 11 9 2 4 8 28 4 11 7 11 5 9 10
16 17 17 16 15 14 16 19 18 16 11 23 24 11 7 7 4 3 11 11 4 7 2 4 7 11 7 10 14 9 6 4 11 12 9 14 10 3 6 4 9 6 14 13
15 14 13 13 12 12 15 18 16 18 11 27 26 26 25 22 15 6 11 8 9 3 3 3 4 4 5 6 11 10 11 8 11 8 15 19 3 2 7 6 24 18 14 19
11 13 14 15 16 16 17 22 19 20 26 18 14 18 22 36 40 26 16 14 8 4 0 2 2 3 3 4 6 5 6 7 5 6 5 20 20 16 19 23 34 21 16 24
11 12 13 15 17 17 21 23 21 19 25 31 35 33 27 28 36 38 24 30 25 24 24 8 4 8 3 4 6 10 7 20 11 7 15 26 34 28 27 30 39 26 22 20
12 12 12 12 12 13 16 21 22 21 14 7 11 16 23 25 24 30 39 47 32 26 20 10 5 6 8 5 8 9 15 3 13 16 20 28 29 36 37 40 42 28 24 28
10 8 9 9 9 10 16 22 25 26 23 5 10 16 33 37 28 30 33 38 38 30 13 6 6 6 8 11 9 15 33 27 12 17 35 27 33 40 35 31 36 34 28 22
11 10 7 10 11 9 8 5 15 26 29 9 3 8 19 26 25 32 37 32 33 27 9 10 13 33 12 5 12 37 47 37 39 34 49 44 41 45 45 41 41 32 25 22
11 11 10 9 10 12 12 6 3 5 12 5 6 6 6 11 11 25 28 25 18 19 13 13 23 29 15 7 17 44 45 38 38 38 40 39 42 38 42 36 31 25 22 24
11 11 12 15 15 18 19 21 21 13 7 4 3 4 7 6 4 4 11 11 14 12 10 7 10 13 11 9 26 39 42 41 39 42 45 47 49 42 41 37 36 28 24 22
11 9 11 13 12 10 12 11 13 18 14 4 4 2 4 2 4 5 4 8 4 9 4 6 7 5 7 16 26 33 37 35 43 46 41 38 40 42 38 33 31 29 17 8
10 11 4 6 6 8 8 5 6 12 10 8 6 7 3 6 2 1 3 4 2 3 5 4 4 7 21 23 30 33 38 40 46 39 33 35 28 30 35 33 23 15 14 17
7 7 6 5 10 11 2 4 5 6 4 7 7 14 5 10 3 3 4 2 2 3 3 3 3 2 12 31 36 34 30 21 19 19 19 29 33 31 29 28 25 17 24 38
8 4 9 11 5 4 3 3 3 4 4 6 6 7 10 4 4 4 3 2 2 5 3 3 2 5 30 30 31 28 22 21 23 26 29 9 15 20 17 20 21 34 43 46
4 8 7 6 5 6 5 6 4 3 5 6 6 2 3 3 2 4 1 3 5 10 3 2 2 20 27 28 25 25 22 23 29 36 42 47 48 48 50 50 51 54 51 47
5 7 5 4 5 6 5 4 3 6 7 9 10 2 3 3 2 1 3 4 3 3 2 4 5 20 24 20 18 21 25 29 32 35 39 45 48 48 49 48 48 49 48 44
5 5 5 7 10 8 6 14 6 6 7 9 5 3 3 2 2 2 3 3 3 1 3 3 12 16 15 14 15 17 21 26 30 33 38 40 42 44 45 43 42 41 41 41
5 7 3 6 6 5 7 9 10 9 10 9 4 2 2 4 3 3 5 2 2 1 1 7 8 8 8 9 11 15 19 25 28 31 33 36 37 39 40 39 39 38 37 37
6 8 15 13 7 9 9 7 10 14 13 3 3 4 4 1 2 3 1 3 1 2 3 1 2 5 6 5 8 12 17 21 24 28 30 33 34 35 37 38 33 32 30 29
Wind_Direction
207 196 309 303 316 93 88 99 70 39 71 78 86 132 202 325 323 339 283 15 41 85 1 311 311 277 273 345 343 331 277 283 285 271 282 266 263 324 80 261 276 218 172 276
183 160 43 13 24 104 95 70 37 42 54 110 10 338 3 353 0 347 335 347 346 192 249 308 235 295 309 351 28 329 293 276 310 306 55 41 49 16 16 330 301 243 231 257
148 116 77 83 76 134 113 65 38 59 77 95 117 82 314 309 350 328 18 305 10 4 317 267 286 286 308 3 349 350 274 236 225 255 279 304 296 298 342 326 292 297 288 296
151 141 163 104 125 159 143 81 32 28 14 10 87 115 319 348 329 329 355 329 4 336 311 312 272 330 328 345 320 12 39 275 277 288 310 297 287 289 298 290 291 278 285 280
182 182 182 173 117 167 171 88 36 30 357 357 44 220 217 212 283 290 296 283 306 323 263 263 301 331 308 226 244 330 266 260 283 285 282 286 292 280 274 263 261 257 277 284
213 211 223 231 208 211 171 186 157 7 335 14 41 240 5 4 356 306 346 339 320 316 300 299 293 273 270 268 248 233 232 259 349 280 23 341 292 272 210 245 196 293 293 310
217 225 235 238 235 230 211 141 150 118 273 199 207 281 312 308 299 267 292 319 312 309 316 312 295 285 275 260 253 225 236 235 164 282 306 267 266 256 263 270 291 299 308 316
225 234 237 233 233 243 242 230 243 221 255 253 278 282 280 285 284 293 304 299 290 306 322 301 302 302 293 261 240 224 214 219 229 239 247 284 283 265 272 284 283 291 272 334
233 239 242 245 247 248 251 246 242 232 272 239 250 267 271 270 278 284 271 298 297 294 259 57 247 259 278 271 289 223 230 232 224 109 217 245 261 47 13 343 288 246 25 344
246 251 254 256 256 250 248 250 243 232 251 255 260 252 243 220 230 251 296 289 298 303 211 239 260 261 247 250 252 258 259 241 223 242 246 259 294 299 179 173 263 31 332 321
249 250 250 249 246 245 247 252 247 234 234 258 255 248 244 255 258 253 256 317 269 275 212 204 222 229 227 258 262 270 264 252 243 242 244 257 87 245 194 240 295 300 319 310
249 256 259 256 251 242 242 252 256 247 239 248 257 269 258 254 256 257 251 240 247 274 81 272 291 271 247 265 282 227 250 216 240 249 255 294 291 300 295 294 291 296 304 306
258 263 264 258 251 246 241 248 248 251 246 263 258 261 282 271 257 252 242 253 245 244 245 254 238 248 175 231 242 250 252 237 243 251 247 252 264 271 277 284 282 289 298 295
265 270 263 251 241 233 234 237 245 241 257 259 278 280 267 294 271 255 246 254 246 247 243 240 236 245 218 244 249 249 249 286 243 256 254 264 273 265 263 268 277 283 288 295
259 260 256 245 234 233 240 246 251 250 235 280 284 269 273 277 266 258 258 251 244 245 237 228 246 231 242 255 265 256 250 246 244 250 257 252 264 269 272 267 271 279 282 279
248 254 253 228 216 239 271 276 271 245 248 260 282 289 275 276 269 263 256 249 240 230 236 247 245 242 228 240 255 259 261 254 248 250 260 258 257 263 268 263 273 273 273 279
239 239 239 263 263 257 259 243 294 178 209 253 278 280 288 310 291 250 249 250 229 222 235 236 251 251 243 256 261 269 274 274 269 261 257 258 255 251 262 263 261 269 266 278
233 236 240 246 251 265 257 248 245 222 230 276 262 272 303 245 236 226 229 213 224 224 229 233 239 259 214 247 256 268 275 282 281 271 260 251 260 260 260 261 267 255 257 264
247 249 269 263 237 225 242 252 252 244 232 237 237 214 263 284 246 210 211 222 232 232 224 231 225 229 233 254 294 303 293 284 279 275 262 257 246 251 249 243 244 254 237 270
252 275 209 207 207 202 140 132 166 195 211 222 248 216 269 301 325 273 273 248 260 264 233 222 226 258 283 308 304 303 305 302 296 276 261 238 239 237 239 235 217 229 230 183
256 204 201 178 154 166 215 179 196 194 236 226 237 221 243 268 187 221 231 271 256 262 261 201 249 250 331 328 325 331 332 342 359 343 284 239 226 220 222 229 229 219 182 158
197 175 160 152 169 191 214 193 196 211 234 204 188 224 210 238 231 220 214 255 261 257 345 242 278 340 335 337 346 357 10 27 43 49 50 44 215 194 181 187 182 160 147 147
226 186 165 158 173 215 217 203 204 214 210 191 192 212 220 230 261 267 255 251 239 325 233 284 27 332 340 351 7 22 42 59 71 71 78 87 94 106 113 109 117 129 137 140
228 185 169 202 185 222 205 200 182 192 184 186 199 204 190 216 212 235 258 255 307 292 288 12 340 340 348 3 24 44 51 64 72 80 92 98 102 104 115 123 129 130 130 132
235 226 202 210 227 224 236 220 206 210 197 173 174 211 183 206 240 226 277 292 251 301 354 321 342 342 356 21 43 60 74 81 86 91 96 102 108 111 113 118 122 124 127 129
230 230 236 232 171 241 215 225 220 192 166 167 201 211 207 219 212 203 226 258 267 2 298 324 340 354 14 45 63 80 91 96 97 99 102 106 108 111 115 119 121 123 124 125
227 234 225 231 222 214 216 233 196 179 156 202 184 212 219 127 230 228 193 222 187 178 231 309 35 51 68 71 78 95 100 101 104 108 110 110 113 117 118 116 118 120 121 121